Flag for Lithuania Weather past 2 weeks in Vilnius, Lithuania

Now
68 °F

Broken clouds.


Feels Like: 68 °F
Forecast: 47 / 72 °F
Wind: 12 mph from Northwest

Location: Vilnius Airport

Current Time: Aug 29, 2015 at 1:32:31 PM

Latest Report: Aug 29, 2015 at 12:50 PM


Visibility: N/A

Pressure: 30.15 "Hg

Humidity: 60%

Dew point: 54 °F

Location of VilniusLocation

Historic Weather in Vilnius — Graph

°F

Vilnius temperature yesterday

Maximum temperature yesterday: 79 °F (at 1:20 PM)
Minimum temperature yesterday: 61 °F (at 4:20 AM)
Average temperature yesterday: 68 °F

Past Weeks' High & Low Weather Summary

 TemperatureHumidityPressure
High88 °F (Aug 25, 2:50 PM)100% (Aug 26, 5:50 AM)30.45 "Hg (Aug 26, 5:50 AM)
Low45 °F (Aug 18, 5:20 AM)22% (Aug 25, 2:50 PM)29.86 "Hg (Aug 28, 11:50 AM)
Average65 °F58%30.14 "Hg
* Reported Aug 14 12:20 PM — Aug 29 12:20 PM, Vilnius, Weather by CustomWeather, © 2015

Note: Actual official high and low records may vary slightly from our data, if they occured in-between our weather recording intervals... More about our weather records

Advertising

Vilnius weather history for previous 24 hours

 ConditionsComfort  
Time TempWeatherWind HumidityBarometerVisibility
12:20 PM
Sat, Aug 29
64 °FPartly sunny.14 mph68%30.15 "HgN/A
11:50 AM64 °FPartly sunny.13 mph68%30.15 "HgN/A
10:50 AM63 °FBroken clouds.10 mph83%30.15 "HgN/A
10:20 AM61 °FPartly sunny.8 mph88%30.15 "Hg5 mi
9:50 AM59 °FBroken clouds.8 mph94%30.15 "Hg5 mi
8:50 AM57 °FFog.9 mph94%30.12 "Hg2 mi
8:20 AM55 °FFog.9 mph100%30.12 "Hg2 mi
7:50 AM55 °FFog.10 mph100%30.12 "Hg2 mi
7:20 AM55 °FFog.9 mph100%30.09 "Hg2 mi
6:50 AM54 °FFog.8 mph100%30.09 "Hg2 mi
6:20 AM54 °FPartly cloudy.7 mph100%30.09 "HgN/A
5:50 AM54 °FPartly cloudy.8 mph100%30.09 "HgN/A
5:20 AM55 °FPassing clouds.7 mph94%30.09 "HgN/A
4:50 AM55 °FPassing clouds.7 mph94%30.07 "HgN/A
4:20 AM55 °FPassing clouds.7 mph94%30.07 "HgN/A
3:50 AM55 °FPassing clouds.7 mph94%30.07 "HgN/A
3:20 AM57 °FPassing clouds.7 mph94%30.07 "HgN/A
2:50 AM57 °FPartly cloudy.8 mph94%30.07 "HgN/A
2:20 AM57 °FPassing clouds.8 mph94%30.07 "HgN/A
1:50 AM57 °FPassing clouds.10 mph94%30.04 "HgN/A
1:20 AM59 °FClear.9 mph88%30.04 "Hg10 mi
12:50 AM59 °FClear.9 mph94%30.04 "Hg10 mi
12:20 AM59 °FClear.8 mph94%30.04 "Hg10 mi
11:50 PM
Fri, Aug 28
61 °FClear.7 mph88%30.01 "Hg10 mi
11:20 PM61 °FClear.8 mph88%30.01 "Hg10 mi
10:50 PM61 °FPartly cloudy.7 mph94%30.01 "HgN/A
10:20 PM63 °FPartly cloudy.7 mph88%30.01 "HgN/A
9:50 PM63 °FPartly cloudy.5 mph94%29.98 "HgN/A
9:20 PM63 °FBroken clouds.7 mph94%29.98 "HgN/A
8:50 PM63 °FBroken clouds.9 mph94%29.98 "HgN/A
8:20 PM64 °FSprinkles. Mostly cloudy.12 mph94%29.98 "Hg5 mi
7:50 PM64 °FRain showers. Mostly cloudy.17 mph88%29.98 "Hg2 mi
7:20 PM66 °FRain showers. Mostly cloudy.15 mph88%29.95 "Hg2 mi
6:50 PM72 °FPartly sunny.14 mph69%29.95 "HgN/A
6:20 PM73 °FPartly sunny.13 mph57%29.95 "HgN/A
5:50 PM73 °FPartly sunny.13 mph61%29.92 "HgN/A
5:20 PM75 °FBroken clouds.12 mph57%29.92 "HgN/A
4:50 PM77 °FPartly sunny.10 mph54%29.92 "HgN/A
4:20 PM77 °FBroken clouds.9 mph54%29.92 "HgN/A
3:50 PM77 °FBroken clouds.7 mph54%29.89 "HgN/A
3:20 PM79 °FBroken clouds.12 mph51%29.92 "HgN/A
2:50 PM79 °FPartly sunny.17 mph51%29.89 "HgN/A
2:20 PM79 °FSunny.14 mph51%29.89 "Hg10 mi
1:50 PM79 °FSunny.16 mph51%29.89 "Hg10 mi
1:20 PM79 °FSunny.21 mph51%29.89 "Hg10 mi
Weather by CustomWeather, © 2015

See weather overviewHow to use our weather pages